Weather History for Morgantown, WV

Change the Weather History Date:

Thursday, November 7, 2013

  Actual Average Record
Temperature  
Mean Temperature 52 °F 48 °F  
Max Temperature 65 °F 57 °F 75 °F (1996)
Min Temperature 39 °F 39 °F 20 °F (1971)
Degree Days  
Heating Degree Days 13 17  
Month to date heating degree days 102 114  
Since 1 July heating degree days 502 556  
Cooling Degree Days 0 0  
Month to date cooling degree days 0 0  
Year to date cooling degree days 906 813  
Growing Degree Days 2 (Base 50)    
Moisture  
Dew Point 42 °F    
Average Humidity 71    
Maximum Humidity 93    
Minimum Humidity 49    
Precipitation  
Precipitation 0.74 in 0.11 in 1.20 in (1968)
Month to date precipitation 1.02 0.77  
Year to date precipitation 34.00 36.23  
Sea Level Pressure  
Sea Level Pressure 30.03 in    
Wind  
Wind Speed 7 mph (West)    
Max Wind Speed 15 mph    
Max Gust Speed 24 mph    
Visibility 7 miles    
Events Rain    
T = Trace of Precipitation, MM = Missing Value Source: NWS Daily Summary

Daily Weather History Graph

Daily Weather History Graph

Search for Another Location

Airport:

Trip Planner

Search our weather history database for the weather conditions in past years. The results will help you decide how hot, cold, wet, or windy it might be!

Date:

Astronomy

Nov. 07, 2013 Rise Set
Actual Time 6:55 AM EST 5:11 PM EST
Civil Twilight 6:26 AM EST 5:39 PM EST
Nautical Twilight 5:54 AM EST 6:11 PM EST
Astronomical Twilight 5:23 AM EST 6:43 PM EST
Moon 11:02 AM EST (11/7) 9:21 PM EST (11/7)
Length of Visible Light 11h 12m
Length of Day
10h 15m
Waxing Crescent, 22% of the Moon is Illuminated
Nov 7
Waxing Crescent
Nov 10
First Quarter
Nov 17
Full
Nov 25
Last Quarter
Dec 2
New

Hourly Weather History & Observations

Time (EST) Temp. Windchill Dew Point Humidity Pressure Visibility Wind Dir Wind Speed Gust Speed Precip Events Conditions
12:53 AM 64.0 °F - 46.9 °F 54% 29.93 in 10.0 mi SW 4.6 mph - N/A   Overcast
1:53 AM 64.0 °F - 48.0 °F 56% 29.91 in 10.0 mi SW 13.8 mph 23.0 mph N/A   Overcast
2:53 AM 61.0 °F - 50.0 °F 67% 29.90 in 10.0 mi Variable 5.8 mph - 0.00 in   Overcast
3:53 AM 59.0 °F - 52.0 °F 78% 29.90 in 3.0 mi SW 6.9 mph 17.3 mph 0.03 in Rain Rain
4:19 AM 55.4 °F - 53.6 °F 94% 29.92 in 4.0 mi SSW 8.1 mph 16.1 mph 0.04 in Rain Light Rain
4:35 AM 55.4 °F - 53.6 °F 94% 29.93 in 2.5 mi Variable 5.8 mph - 0.10 in Rain Heavy Rain
4:44 AM 55.4 °F - 53.6 °F 94% 29.93 in 3.0 mi Variable 4.6 mph - 0.13 in Rain Rain
4:51 AM 55.4 °F - 53.6 °F 94% 29.93 in 1.8 mi West 5.8 mph - 0.21 in Rain Heavy Rain
4:53 AM 55.9 °F - 54.0 °F 93% 29.92 in 1.5 mi West 5.8 mph - 0.22 in Rain Heavy Rain
5:04 AM 55.4 °F - 53.6 °F 94% 29.93 in 3.0 mi SSW 5.8 mph - 0.03 in Rain Light Rain
5:16 AM 55.4 °F - 53.6 °F 94% 29.92 in 4.0 mi Variable 3.5 mph - 0.06 in Rain Rain
5:27 AM 55.4 °F - 55.4 °F 100% 29.93 in 1.8 mi West 4.6 mph - 0.14 in Rain Heavy Rain
5:35 AM 55.4 °F - 53.6 °F 94% 29.95 in 3.0 mi WNW 12.7 mph 23.0 mph 0.16 in Rain Rain
5:53 AM 50.0 °F - 46.9 °F 89% 29.96 in 6.0 mi Variable 4.6 mph - 0.19 in Rain Light Rain
6:43 AM 48.2 °F - 46.4 °F 93% 29.97 in 7.0 mi Calm Calm - 0.08 in Rain Light Rain
6:53 AM 48.9 °F - 46.0 °F 90% 29.97 in 6.0 mi Calm Calm - 0.10 in Rain Light Rain
7:12 AM 48.2 °F - 46.4 °F 93% 30.00 in 4.0 mi West 3.5 mph - 0.04 in Rain Rain
7:24 AM 48.2 °F - 46.4 °F 93% 30.00 in 2.5 mi West 4.6 mph - 0.08 in Rain Rain
7:30 AM 48.2 °F - 46.4 °F 93% 29.99 in 4.0 mi WNW 4.6 mph - 0.09 in Rain Light Rain
7:49 AM 48.2 °F - 46.4 °F 93% 30.01 in 4.0 mi WNW 4.6 mph - 0.12 in Rain Light Rain
7:53 AM 48.0 °F - 46.0 °F 93% 30.01 in 4.0 mi NW 4.6 mph - 0.13 in Rain Rain
8:02 AM 48.2 °F - 44.6 °F 87% 30.02 in 5.0 mi NW 5.8 mph - 0.01 in Rain Light Rain
8:10 AM 46.4 °F 43.5 °F 44.6 °F 93% 30.02 in 5.0 mi Variable 5.8 mph - 0.02 in Rain Light Rain
8:53 AM 46.0 °F 41.9 °F 43.0 °F 89% 30.04 in 10.0 mi NW 8.1 mph - 0.05 in   Overcast
9:22 AM 46.4 °F 43.5 °F 42.8 °F 87% 30.05 in 6.0 mi WNW 5.8 mph - N/A   Overcast
9:30 AM 44.6 °F 40.7 °F 42.8 °F 93% 30.05 in 3.0 mi Variable 6.9 mph - 0.01 in Rain Light Rain
9:53 AM 45.0 °F 41.8 °F 43.0 °F 93% 30.07 in 7.0 mi NW 5.8 mph - 0.01 in   Overcast
10:04 AM 44.6 °F 41.4 °F 42.8 °F 93% 30.08 in 5.0 mi NW 5.8 mph - N/A   Overcast
10:12 AM 44.6 °F 41.4 °F 42.8 °F 93% 30.08 in 1.8 mi NW 5.8 mph - 0.01 in Rain Light Rain
10:24 AM 44.6 °F 42.2 °F 42.8 °F 93% 30.08 in 3.0 mi Variable 4.6 mph - 0.01 in   Overcast
10:35 AM 44.6 °F 43.1 °F 42.8 °F 93% 30.09 in 10.0 mi Variable 3.5 mph - 0.01 in   Overcast
10:46 AM 44.6 °F 43.1 °F 42.8 °F 93% 30.08 in 10.0 mi Variable 3.5 mph - 0.01 in   Overcast
10:53 AM 46.0 °F 43.1 °F 42.1 °F 86% 30.08 in 10.0 mi Variable 5.8 mph - 0.01 in   Overcast
11:46 AM 46.4 °F 43.5 °F 39.2 °F 76% 30.09 in 10.0 mi WNW 5.8 mph - N/A   Overcast
11:53 AM 46.0 °F 41.9 °F 39.9 °F 79% 30.09 in 10.0 mi West 8.1 mph - N/A   Overcast
12:14 PM 46.4 °F 42.9 °F 39.2 °F 76% 30.09 in 10.0 mi West 6.9 mph - N/A   Overcast
12:25 PM 44.6 °F 41.4 °F 37.4 °F 76% 30.08 in 10.0 mi West 5.8 mph - N/A   Overcast
12:53 PM 46.0 °F 42.5 °F 39.9 °F 79% 30.08 in 10.0 mi WNW 6.9 mph - 0.00 in Rain Light Rain
1:01 PM 44.6 °F 40.7 °F 39.2 °F 81% 30.08 in 8.0 mi Variable 6.9 mph - 0.00 in Rain Light Rain
1:24 PM 44.6 °F 42.2 °F 39.2 °F 81% 30.08 in 10.0 mi WNW 4.6 mph - 0.00 in   Overcast
1:53 PM 46.0 °F 40.6 °F 34.0 °F 63% 30.08 in 10.0 mi West 11.5 mph 19.6 mph 0.00 in   Overcast
2:53 PM 45.0 °F 40.1 °F 34.0 °F 65% 30.08 in 10.0 mi WNW 9.2 mph - N/A   Overcast
3:53 PM 45.0 °F 41.8 °F 35.1 °F 68% 30.09 in 10.0 mi Variable 5.8 mph - N/A   Mostly Cloudy
4:53 PM 44.1 °F 38.6 °F 28.9 °F 55% 30.11 in 10.0 mi WNW 10.4 mph - N/A   Overcast
5:53 PM 43.0 °F 37.2 °F 25.0 °F 49% 30.14 in 10.0 mi WNW 10.4 mph 20.7 mph N/A   Overcast
6:53 PM 42.1 °F 37.7 °F 25.0 °F 51% 30.17 in 10.0 mi NW 6.9 mph - N/A   Overcast
7:53 PM 42.1 °F 39.2 °F 25.0 °F 51% 30.19 in 10.0 mi WNW 4.6 mph - N/A   Overcast
8:53 PM 41.0 °F 37.1 °F 24.1 °F 51% 30.18 in 10.0 mi Variable 5.8 mph - N/A   Overcast
9:53 PM 41.0 °F 39.0 °F 25.0 °F 53% 30.17 in 10.0 mi SW 3.5 mph - N/A   Overcast
10:53 PM 39.9 °F 35.1 °F 25.0 °F 55% 30.17 in 10.0 mi SW 6.9 mph - N/A   Overcast
11:53 PM 39.9 °F 35.1 °F 26.1 °F 58% 30.16 in 10.0 mi WSW 6.9 mph - N/A   Overcast